Syracuse, NY

2:37 PM EDT on August 21, 2019 (GMT -0400)
Syracuse Hancock International

Weather History for KSYR - June, 2019

Change the Weather History Date:

Friday, June 7, 2019

  Actual Average Record
Temperature  
Mean Temperature 64 °F 64 °F  
Max Temperature 78 °F 75 °F 94 °F (1999)
Min Temperature 49 °F 54 °F 40 °F (1939)
Degree Days  
Heating Degree Days 1 3  
Month to date heating degree days 29 26  
Since 1 June heating degree days 29 26  
Since 1 July heating degree days 6753 6616  
Cooling Degree Days 0 3  
Month to date cooling degree days 1 15  
Year to date cooling degree days 14 45  
Since 1 June cooling degree days 1 15  
Growing Degree Days 13 (Base 50)    
Moisture  
Dew Point 48 °F    
Average Humidity 60    
Maximum Humidity 89    
Minimum Humidity 31    
Precipitation  
Precipitation 0.00 in 0.11 in 0.92 in (1935)
Month to date precipitation 1.27 0.76  
Year to date precipitation 18.92 14.69  
Snow  
Snow 0.00 in 0.00 in 0.00 in (2002)
Month to date snowfall 0.0 0.0  
Since 1 June snowfall 0.0 0.0  
Since 1 July snowfall 115.0 123.8  
Snow Depth 0.00 in    
Sea Level Pressure  
Sea Level Pressure 29.97 in    
Wind  
Wind Speed 5 mph (West)    
Max Wind Speed 16 mph    
Max Gust Speed 23 mph    
Visibility 10 miles    
Events      
T = Trace of Precipitation, MM = Missing Value Source: NWS Daily Summary

Daily Weather History Graph

Daily Weather History Graph

Search for Another Location

Airport or City:

Astronomy

Jun. 07, 2019 Rise Set
Actual Time 5:25 AM EDT 8:41 PM EDT
Civil Twilight 4:50 AM EDT 9:16 PM EDT
Nautical Twilight 4:05 AM EDT 10:01 PM EDT
Astronomical Twilight 3:09 AM EDT 10:57 PM EDT
Moon 9:41 AM EDT (6/7) No Moon Set
Length of Visible Light 16h 26m
Length of Day
15h 16m
Waxing Crescent, 22% of the Moon is Illuminated
Jun 7
Waxing Crescent
Jun 10
First Quarter
Jun 17
Full
Jun 25
Last Quarter
Jul 2
New

Hourly Weather History & Observations

Time (EDT) Temp. Dew Point Humidity Pressure Visibility Wind Dir Wind Speed Gust Speed Precip Events Conditions
12:54 AM 54.0 °F 50.0 °F 86% 29.93 in 10.0 mi Calm Calm - N/A   Clear
1:54 AM 53.1 °F 48.9 °F 86% 29.92 in 10.0 mi Calm Calm - N/A   Clear
2:54 AM 51.1 °F 48.0 °F 89% 29.92 in 10.0 mi ESE 3.5 mph - N/A   Clear
3:54 AM 51.1 °F 46.9 °F 86% 29.92 in 10.0 mi SE 3.5 mph - N/A   Clear
4:54 AM 50.0 °F 46.0 °F 86% 29.93 in 10.0 mi Calm Calm - N/A   Clear
5:54 AM 50.0 °F 46.0 °F 86% 29.95 in 10.0 mi Calm Calm - N/A   Partly Cloudy
6:54 AM 54.0 °F 48.0 °F 80% 29.96 in 10.0 mi Calm Calm - N/A   Partly Cloudy
7:54 AM 60.1 °F 50.0 °F 69% 29.97 in 10.0 mi Calm Calm - N/A   Partly Cloudy
8:54 AM 64.9 °F 52.0 °F 63% 29.98 in 10.0 mi West 5.8 mph - N/A   Partly Cloudy
9:54 AM 68.0 °F 52.0 °F 56% 29.98 in 10.0 mi WSW 4.6 mph - N/A   Partly Cloudy
10:54 AM 71.1 °F 51.1 °F 49% 29.98 in 10.0 mi SW 6.9 mph - N/A   Partly Cloudy
11:54 AM 73.9 °F 50.0 °F 43% 29.98 in 10.0 mi WSW 10.4 mph - N/A   Partly Cloudy
12:54 PM 75.0 °F 51.1 °F 43% 29.98 in 10.0 mi West 11.5 mph - N/A   Partly Cloudy
1:54 PM 77.0 °F 48.9 °F 37% 29.97 in 10.0 mi West 8.1 mph - N/A   Partly Cloudy
2:54 PM 77.0 °F 46.0 °F 33% 29.97 in 10.0 mi WNW 10.4 mph 18.4 mph N/A   Partly Cloudy
3:54 PM 77.0 °F 45.0 °F 32% 29.97 in 10.0 mi WNW 5.8 mph - N/A   Partly Cloudy
4:54 PM 77.0 °F 44.1 °F 31% 29.97 in 10.0 mi WNW 8.1 mph - N/A   Partly Cloudy
5:54 PM 75.9 °F 44.1 °F 32% 29.98 in 10.0 mi NNW 9.2 mph - N/A   Partly Cloudy
6:54 PM 75.0 °F 45.0 °F 34% 29.97 in 10.0 mi West 5.8 mph - N/A   Partly Cloudy
7:54 PM 72.0 °F 48.0 °F 43% 29.98 in 10.0 mi NW 6.9 mph - N/A   Partly Cloudy
8:54 PM 69.1 °F 46.9 °F 45% 30.00 in 10.0 mi NW 3.5 mph - N/A   Partly Cloudy
9:54 PM 64.0 °F 48.0 °F 56% 30.03 in 10.0 mi North 3.5 mph - N/A   Partly Cloudy
10:54 PM 62.1 °F 48.9 °F 62% 30.05 in 10.0 mi Calm Calm - N/A   Partly Cloudy
11:54 PM 60.1 °F 50.0 °F 69% 30.06 in 10.0 mi Calm Calm - N/A   Clear